New York, NY

7:24 AM EST on November 24, 2017 (GMT -0500)
La Guardia

Weather History for KLGA - January, 2015

Change the Weather History Date:

Wednesday, January 21, 2015

  Actual Average Record
Temperature  
Mean Temperature 30 °F 33 °F  
Max Temperature 35 °F 39 °F 64 °F (2006)
Min Temperature 25 °F 26 °F -3 °F (1985)
Degree Days  
Heating Degree Days 35 32  
Month to date heating degree days 728 668  
Since 1 July heating degree days 2231 2274  
Cooling Degree Days 0 0  
Month to date cooling degree days 0 0  
Year to date cooling degree days 0 0  
Moisture  
Dew Point 10 °F    
Average Humidity 43    
Maximum Humidity 55    
Minimum Humidity 30    
Precipitation  
Precipitation T in 0.10 in 3.13 in (1979)
Month to date precipitation 3.52 2.18  
Year to date precipitation 3.52 2.18  
Snow  
Snow T in 0.20 in 8.10 in (2014)
Month to date snowfall 2.8 5.0  
Since 1 July snowfall 4.5 10.5  
Snow Depth 0.00 in    
Sea Level Pressure  
Sea Level Pressure 30.14 in    
Wind  
Wind Speed 7 mph (NE)    
Max Wind Speed 12 mph    
Max Gust Speed 16 mph    
Visibility 10 miles    
Events      
T = Trace of Precipitation, MM = Missing Value Source: NWS Daily Summary

Daily Weather History Graph

Daily Weather History Graph

Search for Another Location

Airport or City:

Trip Planner

Search our weather history database for the weather conditions in past years. The results will help you decide how hot, cold, wet, or windy it might be!

Date:

Astronomy

Jan. 21, 2015 Rise Set
Actual Time 7:14 AM EST 4:59 PM EST
Civil Twilight 6:44 AM EST 5:29 PM EST
Nautical Twilight 6:11 AM EST 6:02 PM EST
Astronomical Twilight 5:38 AM EST 6:35 PM EST
Moon 7:41 AM EST (1/21) 6:45 PM EST (1/21)
Length of Visible Light 10h 44m
Length of Day
9h 44m
New Moon, 2% of the Moon is Illuminated
Jan 21
New Moon
Jan 26
First Quarter
Feb 3
Full
Feb 11
Last Quarter
Feb 18
New

Hourly Weather History & Observations

Time (EST) Temp. Windchill Dew Point Humidity Pressure Visibility Wind Dir Wind Speed Gust Speed Precip Events Conditions
12:51 AM 30.9 °F 24.3 °F 10.0 °F 42% 30.06 in 10.0 mi North 6.9 mph - N/A   Clear
1:51 AM 30.0 °F 24.1 °F 12.9 °F 49% 30.08 in 10.0 mi North 5.8 mph - N/A   Clear
2:51 AM 28.9 °F 21.9 °F 14.0 °F 54% 30.10 in 10.0 mi North 6.9 mph - N/A   Clear
3:51 AM 28.0 °F 19.3 °F 12.9 °F 53% 30.10 in 10.0 mi North 9.2 mph - N/A   Scattered Clouds
4:51 AM 26.1 °F 20.5 °F 12.0 °F 55% 30.12 in 10.0 mi NNE 4.6 mph - N/A   Mostly Cloudy
5:51 AM 26.1 °F 16.2 °F 10.9 °F 53% 30.12 in 10.0 mi North 10.4 mph - N/A   Scattered Clouds
6:51 AM 25.0 °F 16.3 °F 8.1 °F 49% 30.13 in 10.0 mi North 8.1 mph - N/A   Mostly Cloudy
7:51 AM 25.0 °F 18.1 °F 7.0 °F 46% 30.14 in 10.0 mi NNE 5.8 mph - N/A   Mostly Cloudy
8:51 AM 26.1 °F 19.4 °F 5.0 °F 41% 30.17 in 10.0 mi NE 5.8 mph - N/A   Overcast
9:51 AM 27.0 °F 19.5 °F 5.0 °F 39% 30.18 in 10.0 mi NE 6.9 mph - N/A   Overcast
10:51 AM 28.9 °F 21.9 °F 6.1 °F 38% 30.19 in 10.0 mi NE 6.9 mph - N/A   Overcast
11:51 AM 28.9 °F 20.4 °F 7.0 °F 40% 30.17 in 10.0 mi NE 9.2 mph - N/A   Overcast
12:51 PM 30.9 °F 24.3 °F 6.1 °F 35% 30.15 in 10.0 mi ENE 6.9 mph - N/A   Overcast
1:51 PM 32.0 °F 24.8 °F 7.0 °F 35% 30.14 in 10.0 mi ENE 8.1 mph - N/A   Mostly Cloudy
2:51 PM 32.0 °F 25.6 °F 5.0 °F 32% 30.14 in 10.0 mi ENE 6.9 mph - N/A   Mostly Cloudy
3:51 PM 33.1 °F 28.7 °F 7.0 °F 34% 30.14 in 10.0 mi ENE 4.6 mph - N/A   Mostly Cloudy
4:51 PM 32.0 °F 23.6 °F 10.0 °F 40% 30.11 in 10.0 mi ENE 10.4 mph - N/A   Mostly Cloudy
5:51 PM 32.0 °F 27.5 °F 12.0 °F 44% 30.15 in 10.0 mi ENE 4.6 mph - N/A   Mostly Cloudy
6:51 PM 34.0 °F 28.0 °F 7.0 °F 32% 30.15 in 10.0 mi East 6.9 mph - N/A   Overcast
7:51 PM 34.0 °F 28.0 °F 10.9 °F 38% 30.15 in 10.0 mi East 6.9 mph - N/A   Overcast
8:51 PM 34.0 °F 27.2 °F 15.1 °F 46% 30.15 in 10.0 mi NE 8.1 mph - N/A   Overcast
9:51 PM 33.1 °F 26.9 °F 14.0 °F 46% 30.16 in 10.0 mi NE 6.9 mph - N/A   Overcast
10:51 PM 33.1 °F 28.7 °F 16.0 °F 50% 30.16 in 10.0 mi ENE 4.6 mph - 0.00 in   Overcast
11:51 PM 33.1 °F 30.0 °F 15.1 °F 48% 30.15 in 10.0 mi NE 3.5 mph - N/A   Overcast